[[{"header":{"parameterUnit":"m.s-1","parameterCategory":1,"la1":30.2992,"la2":30.254,"lo1":-89.0895,"lo2":-89.0443,"dy":0.0025,"dx":0.0025,"nx":19,"ny":19,"refTime":"2026-05-03T09:00:00:Z","depth":0,"parameterNumber":2,"parameterNumberName":"U-component_of_WINDS"},"data":[0,0,0,-1.0983,-1.0984,-1.0997,-1.0997,-1.1019,-1.1019,0,0,0,0,0,0,0,0,0,0,0,-1.0981,-1.0982,-1.0983,-1.0984,-1.0997,-1.0997,-1.1019,-1.1019,0,0,0,0,0,0,0,0,0,0,0,-1.0981,-1.0982,-1.0982,-1.0984,-1.0997,-1.0997,-1.1019,-1.1007,0,0,0,0,0,0,0,0,0,0,-1.0993,-1.0994,-1.0981,-1.0982,-1.0984,-1.0997,-1.0997,-1.1007,-1.1008,-1.1015,0,-1.102,0,-1.102,-1.1021,-1.1021,0,0,0,-1.0982,-1.0992,-1.0994,-1.0982,-1.0984,-1.0997,-1.0991,-1.1007,-1.1009,-1.1016,-1.1021,-1.1021,-1.102,-1.1021,-1.1021,-1.1063,-1.1063,0,0,-1.0981,-1.0985,-1.0993,-1.0995,-1.0993,-1.099,-1.0991,-1.1008,-1.1013,-1.1021,-1.1022,-1.1021,-1.1021,-1.1021,-1.1063,-1.1063,0,0,0,-1.098,-1.0985,-1.0986,-1.0994,-1.0996,-1.0991,-1.0992,-1.1013,-1.1013,-1.1022,-1.1021,-1.1021,-1.1022,-1.1062,-1.1063,-1.1079,0,0,0,-1.098,-1.0984,-1.0985,-1.0988,-1.0996,-1.1004,-1.0996,-1.1011,-1.1013,-1.1021,-1.1021,-1.1022,-1.1062,-1.1063,-1.1078,-1.1086,0,0,0,-1.098,-1.0984,-1.0986,-1.0988,-1.0994,-1.1004,-1.1005,-1.1012,-1.1013,-1.1021,-1.1022,-1.1062,-1.1062,-1.1077,-1.1084,-1.1098,0,0,0,-1.0981,-1.1001,-1.0987,-1.1009,-1.0994,-1.1014,-1.1005,-1.102,-1.1029,-1.1021,-1.1062,-1.1063,-1.1076,-1.1083,-1.1097,-1.111,-1.1116,0,0,-1.1008,-1.1004,-1.1017,-1.1005,-1.1028,-1.1011,-1.1037,-1.1043,-1.104,-1.1056,-1.1057,-1.1078,-1.1084,-1.1098,-1.1147,-1.1151,0,0,0,-1.1026,-1.1035,-1.1041,-1.1049,-1.1053,-1.1058,-1.1058,-1.1061,-1.1073,-1.1049,-1.1087,-1.109,-1.1098,-1.1104,-1.1108,-1.1115,-1.1066,-1.1066,-1.1066,-1.1069,-1.1065,-1.1086,-1.1084,-1.1092,-1.1093,-1.1099,-1.1102,-1.1096,-1.1105,-1.1109,-1.114,-1.1147,-1.115,-1.1157,-1.1116,-1.1116,-1.1116,-1.1116,-1.1108,-1.1121,-1.1112,-1.1128,-1.1124,-1.1139,-1.1141,-1.1136,-1.1149,-1.1136,-1.1143,-1.1129,-1.1155,-1.1161,-1.1118,-1.1117,-1.1117,-1.1117,-1.1117,-1.1136,-1.1141,-1.1143,-1.1155,-1.1165,-1.1162,-1.1175,-1.1171,-1.1168,-1.1174,-1.1179,-1.1179,-1.1178,-1.1177,-1.1177,-1.1177,-1.1177,-1.1177,-1.1177,-1.1164,-1.1166,-1.1177,-1.1183,-1.1188,-1.1194,-1.1196,-1.1201,-1.1206,-1.1202,-1.1202,-1.1195,-1.1158,-1.1149,-1.1179,-1.1179,-1.1178,-1.1178,-1.1178,-1.1205,-1.1195,-1.1212,-1.1217,-1.1225,-1.1235,-1.123,-1.1241,-1.1245,-1.1251,-1.1243,-1.1217,-1.1212,-1.1209,-1.1202,-1.1244,-1.1244,-1.1244,-1.1244,-1.1229,-1.1226,-1.1243,-1.1251,-1.1259,-1.1256,-1.1276,-1.1278,-1.1278,-1.128,-1.1274,-1.1264,-1.1261,-1.1258,-1.1254,-1.1247,-1.1299,-1.1299,-1.1299,-1.1254,-1.1252,-1.127,-1.1269,-1.1274,-1.1279,-1.1299,-1.1309,-1.1308,-1.1302,-1.1282,-1.128,-1.1263,-1.1258,-1.1251,-1.1245,-1.1232,0,0]},{"header":{"parameterUnit":"m.s-1","parameterCategory":1,"la1":30.2992,"la2":30.254,"lo1":-89.0895,"lo2":-89.0443,"dy":0.0025,"dx":0.0025,"nx":19,"ny":19,"refTime":"2026-05-03T09:00:00:Z","depth":0,"parameterNumber":3,"parameterNumberName":"V-component_of_WINDS"},"data":[0,0,0,4.0664,4.0665,4.0707,4.0707,4.0764,4.0764,0,0,0,0,0,0,0,0,0,0,0,4.0655,4.0656,4.0664,4.0665,4.0707,4.0707,4.0764,4.0764,0,0,0,0,0,0,0,0,0,0,0,4.0655,4.0656,4.0657,4.0665,4.0707,4.0707,4.0763,4.073,0,0,0,0,0,0,0,0,0,0,4.0689,4.0685,4.0656,4.0657,4.0666,4.0707,4.0707,4.0729,4.0732,4.0747,0,4.0762,0,4.0764,4.0768,4.0769,0,0,0,4.0662,4.0682,4.069,4.0657,4.0666,4.0707,4.0687,4.0731,4.0735,4.0752,4.0763,4.0765,4.0765,4.0769,4.0769,4.0865,4.0866,0,0,4.066,4.0665,4.0687,4.0693,4.0689,4.0686,4.0688,4.0733,4.0745,4.0763,4.0766,4.0766,4.0769,4.077,4.0864,4.0865,0,0,0,4.0655,4.0663,4.067,4.0691,4.0698,4.0687,4.069,4.0743,4.0745,4.0766,4.0767,4.077,4.077,4.0864,4.0865,4.0898,0,0,0,4.0654,4.0661,4.0669,4.0672,4.0698,4.0721,4.0699,4.0742,4.0747,4.0766,4.077,4.0771,4.0863,4.0864,4.0896,4.0913,0,0,0,4.0651,4.066,4.0668,4.0673,4.0691,4.0721,4.0725,4.0743,4.0747,4.0769,4.0771,4.0863,4.0864,4.0894,4.0909,4.0938,0,0,0,4.065,4.0697,4.0668,4.0721,4.0691,4.0742,4.0725,4.0762,4.0785,4.077,4.0863,4.0865,4.0893,4.0907,4.0936,4.0963,4.0975,0,0,4.0712,4.0705,4.0735,4.0711,4.0768,4.0735,4.0797,4.0813,4.081,4.0846,4.0849,4.0897,4.0909,4.0938,4.1043,4.1052,0,0,0,4.0757,4.0778,4.0793,4.0815,4.0829,4.0841,4.0848,4.0853,4.0884,4.0831,4.0916,4.0923,4.0939,4.0952,4.096,4.0973,4.0871,4.0871,4.0871,4.085,4.0845,4.0894,4.0894,4.0915,4.0921,4.0937,4.0946,4.0934,4.0954,4.0964,4.1029,4.1043,4.1049,4.1063,4.0979,4.0979,4.0979,4.0979,4.0939,4.0968,4.0952,4.0993,4.0986,4.1021,4.1028,4.1018,4.1048,4.1021,4.1035,4.1004,4.106,4.1072,4.0982,4.0981,4.0981,4.0981,4.0981,4.0999,4.1012,4.1019,4.105,4.1074,4.1071,4.1101,4.1094,4.1088,4.1102,4.1111,4.111,4.1107,4.1107,4.1107,4.1107,4.1108,4.1108,4.1108,4.1057,4.1064,4.109,4.1109,4.1121,4.1137,4.1143,4.1155,4.1166,4.1159,4.1159,4.1143,4.1067,4.1047,4.1111,4.1111,4.111,4.111,4.111,4.1147,4.1125,4.1166,4.1179,4.1199,4.1223,4.1214,4.1239,4.1248,4.1262,4.1244,4.119,4.1181,4.1175,4.1158,4.1246,4.1246,4.1246,4.1246,4.1196,4.1191,4.1231,4.1251,4.1271,4.1267,4.1311,4.1316,4.1317,4.1322,4.1308,4.1286,4.128,4.1275,4.1266,4.125,4.136,4.136,4.136,4.125,4.1247,4.1286,4.1288,4.1303,4.1316,4.1356,4.138,4.1377,4.1365,4.1325,4.132,4.1284,4.1273,4.1259,4.1245,4.1216,0,0]}]]